Location: Antioch
(38.0049°N, 121.8058°W)
Time: 03:12:01
(UTC+00:00)

Cosmos 2208 Rocket - Pass Details

Date: 19 May 2026
Orbit: 751 x 800 km, 74.0° (Epoch: 9 June)

Event Time Altitude Azimuth Distance (km) Brightness Sun altitude
Exits shadow 09:45:07 44° 303° (WNW) 1,067 4.7 -27.5°
Drops below altitude 10° 09:49:49 10° 5° (N) 2,313 7.3 -27.0°
Sets 09:52:18 0° 12° (NNE) 3,235 8.4 -26.8°
